Location: Godiavel Galaoual
(15.2485°N, 12.6604°W)
Time: 14:38:27
(UTC+00:00)

HJ-1C - Pass Details

Date: 27 February 2020
Orbit: 435 x 445 km, 97.2° (Epoch: 04 April)

Event Time Altitude Azimuth Distance (km) Brightness Sun altitude
Rises 20:05:24 0° 163° (SSE) 2,406 7.0 -17.0°
Reaches altitude 10° 20:07:26 10° 160° (SSE) 1,538 5.9 -17.5°
Maximum altitude 20:10:41 63° 79° (E) 487 3.2 -18.3°
Drops below altitude 10° 20:13:56 10° 357° (N) 1,536 6.1 -19.1°
Sets 20:15:58 0° 354° (N) 2,403 7.1 -19.6°
